Kendall, FL

6:54 AM EDT on September 21, 2017 (GMT -0400)
Kendall-Tamiami Executive

Weather History for KTMB - February, 2013

Change the Weather History Date:

Sunday, February 10, 2013

  Actual Average Record
Temperature  
Mean Temperature 72 °F -  
Max Temperature 80 °F 73 °F 86 °F (2003)
Min Temperature 64 °F 54 °F 41 °F (2000)
Cooling Degree Days 7    
Growing Degree Days 22 (Base 50)    
Moisture  
Dew Point 61 °F    
Average Humidity 69    
Maximum Humidity 83    
Minimum Humidity 48    
Precipitation  
Precipitation 0.00 in - - ()
Sea Level Pressure  
Sea Level Pressure 30.19 in    
Wind  
Wind Speed 12 mph (ESE)    
Max Wind Speed 20 mph    
Max Gust Speed 26 mph    
Visibility 10 miles    
Events Rain    
Averages and records for this station are not official NWS values.
T = Trace of Precipitation, MM = Missing Value Source: NWS Daily Summary

Daily Weather History Graph

Daily Weather History Graph

Search for Another Location

Airport or City:

Trip Planner

Search our weather history database for the weather conditions in past years. The results will help you decide how hot, cold, wet, or windy it might be!

Date:

Astronomy

Feb. 10, 2013 Rise Set
Actual Time 7:00 AM EST 6:12 PM EST
Civil Twilight 6:36 AM EST 6:35 PM EST
Nautical Twilight 6:09 AM EST 7:03 PM EST
Astronomical Twilight 5:42 AM EST 7:29 PM EST
Moon 6:56 AM EST (2/10) 6:50 PM EST (2/10)
Length of Visible Light 11h 59m
Length of Day
11h 12m
New Moon, 0% of the Moon is Illuminated
Feb 10
New Moon
Feb 17
First Quarter
Feb 25
Full
Mar 4
Last Quarter
Mar 11
New

Hourly Weather History & Observations

Time (EST) Temp. Heat Index Dew Point Humidity Pressure Visibility Wind Dir Wind Speed Gust Speed Precip Events Conditions
12:53 AM 70.0 °F - 64.0 °F 81% 30.16 in 10.0 mi ENE 12.7 mph - 0.00 in Rain Light Rain
1:16 AM 69.8 °F - 64.4 °F 83% 30.16 in 10.0 mi East 13.8 mph - 0.00 in Rain Light Rain
1:29 AM 69.8 °F - 64.4 °F 83% 30.16 in 10.0 mi East 9.2 mph - 0.00 in   Overcast
1:53 AM 69.1 °F - 63.0 °F 81% 30.15 in 10.0 mi East 9.2 mph - 0.00 in   Mostly Cloudy
2:53 AM 69.1 °F - 62.1 °F 78% 30.15 in 10.0 mi East 9.2 mph - N/A   Mostly Cloudy
3:53 AM 68.0 °F - 60.1 °F 76% 30.16 in 10.0 mi East 9.2 mph - N/A   Clear
4:53 AM 66.0 °F - 59.0 °F 78% 30.15 in 10.0 mi East 9.2 mph - N/A   Clear
5:53 AM 64.9 °F - 59.0 °F 81% 30.16 in 10.0 mi East 6.9 mph - N/A   Clear
6:53 AM 64.0 °F - 57.9 °F 80% 30.19 in 10.0 mi East 5.8 mph - N/A   Clear
7:53 AM 71.1 °F - 62.1 °F 73% 30.20 in 10.0 mi East 9.2 mph - N/A   Clear
8:53 AM 75.0 °F - 60.1 °F 60% 30.22 in 10.0 mi ESE 16.1 mph 23.0 mph N/A   Clear
9:53 AM 77.0 °F - 59.0 °F 54% 30.24 in 10.0 mi ESE 18.4 mph 24.2 mph N/A   Partly Cloudy
10:53 AM 79.0 °F - 60.1 °F 52% 30.25 in 10.0 mi ESE 9.2 mph 21.9 mph N/A   Partly Cloudy
11:53 AM 79.0 °F - 57.9 °F 48% 30.24 in 10.0 mi ESE 16.1 mph 23.0 mph N/A   Scattered Clouds
12:53 PM 80.1 °F 80.7 °F 59.0 °F 48% 30.22 in 10.0 mi ESE 16.1 mph - N/A   Mostly Cloudy
1:53 PM 78.1 °F - 63.0 °F 60% 30.20 in 10.0 mi ESE 16.1 mph 25.3 mph 0.00 in   Mostly Cloudy
2:53 PM 77.0 °F - 63.0 °F 62% 30.19 in 10.0 mi ESE 19.6 mph - N/A   Mostly Cloudy
3:21 PM 77.0 °F - 62.6 °F 61% 30.17 in 10.0 mi ESE 15.0 mph 25.3 mph N/A   Mostly Cloudy
3:53 PM 75.0 °F - 62.1 °F 64% 30.17 in 10.0 mi ESE 16.1 mph 26.5 mph N/A   Mostly Cloudy
4:53 PM 75.0 °F - 62.1 °F 64% 30.17 in 10.0 mi ESE 19.6 mph - N/A   Mostly Cloudy
5:53 PM 73.0 °F - 62.1 °F 68% 30.18 in 10.0 mi ESE 16.1 mph - N/A   Overcast
6:53 PM 72.0 °F - 62.1 °F 71% 30.19 in 10.0 mi East 15.0 mph - N/A   Overcast
7:53 PM 72.0 °F - 62.1 °F 71% 30.20 in 10.0 mi ESE 17.3 mph 21.9 mph N/A   Mostly Cloudy
8:53 PM 72.0 °F - 62.1 °F 71% 30.22 in 10.0 mi ESE 11.5 mph - N/A   Mostly Cloudy
9:53 PM 72.0 °F - 62.1 °F 71% 30.22 in 10.0 mi ESE 13.8 mph - N/A   Mostly Cloudy
10:53 PM 72.0 °F - 62.1 °F 71% 30.21 in 10.0 mi ESE 12.7 mph - N/A   Mostly Cloudy
11:53 PM 71.1 °F - 62.1 °F 73% 30.20 in 10.0 mi ESE 11.5 mph - N/A   Clear